METOP-SGA1

Last updated on Fri Sep 11 2026 00:02:39 GMT+0000 (Coordinated Universal Time)

1 65159U 25172A 26252.91923028 .00000018 00000+0 28055-4 0 9996 2 65159 98.7087 311.0493 0000899 87.4656 272.6624 14.21502261 55823
UTC large
Height (km)
Speed (km/s)
/
Latitude / Longitude
Inclination (degrees)
Orbital Period (minutes)
Azimuth
Elevation
Range (km)
Doppler Factor

Next 0 passes for location: London (51.5072 / 0.1276)

No passes found over London.
METOP-SGA1